Time,TemperatureF,DewpointF,PressureIn,WindDirection,WindDirectionDegrees,WindSpeedMPH,WindSpeedGustMPH,Humidity,HourlyPrecipIn,Conditions,Clouds,dailyrainin,SoftwareType,DateUTC
2013-03-28 00:05:00,40.2,20.5,29.96,SE,137,2.0,14.0,45,0.00,,,0.00,Wunderground v.1.15,2013-03-28 06:05:00,
2013-03-28 00:10:00,39.9,20.8,29.96,SE,136,3.0,14.0,46,0.00,,,0.00,Wunderground v.1.15,2013-03-28 06:10:00,
2013-03-28 00:15:00,39.9,20.8,29.96,SE,127,3.0,3.0,46,0.00,,,0.00,Wunderground v.1.15,2013-03-28 06:15:00,
2013-03-28 00:20:00,40.0,20.3,29.96,ESE,119,3.0,3.0,45,0.00,,,0.00,Wunderground v.1.15,2013-03-28 06:20:00,
2013-03-28 00:25:00,40.0,20.3,29.96,ESE,113,3.0,3.0,45,0.00,,,0.00,Wunderground v.1.15,2013-03-28 06:25:00,
2013-03-28 00:30:00,40.1,20.4,29.96,SE,130,3.0,3.0,45,0.00,,,0.00,Wunderground v.1.15,2013-03-28 06:30:00,
2013-03-28 00:40:00,39.8,20.7,29.96,SE,134,4.0,4.0,46,0.00,,,0.00,Wunderground v.1.15,2013-03-28 06:40:00,
2013-03-28 00:50:00,39.8,20.7,29.96,SE,137,3.0,3.0,46,0.00,,,0.00,Wunderground v.1.15,2013-03-28 06:50:00,
2013-03-28 00:55:00,39.7,20.6,29.96,SE,134,3.0,3.0,46,0.00,,,0.00,Wunderground v.1.15,2013-03-28 06:55:00,
2013-03-28 01:00:00,39.5,20.4,29.96,SE,134,3.0,3.0,46,0.00,,,0.00,Wunderground v.1.15,2013-03-28 07:00:00,
2013-03-28 01:05:00,39.3,20.7,29.96,SSE,165,3.0,4.0,47,0.00,,,0.00,Wunderground v.1.15,2013-03-28 07:05:00,
2013-03-28 01:10:00,38.8,20.8,29.96,SSE,147,3.0,3.0,48,0.00,,,0.00,Wunderground v.1.15,2013-03-28 07:10:00,
2013-03-28 01:15:00,38.4,20.4,29.96,SSE,152,3.0,3.0,48,0.00,,,0.00,Wunderground v.1.15,2013-03-28 07:15:00,
2013-03-28 01:20:00,38.1,20.6,29.97,SSE,163,3.0,3.0,49,0.00,,,0.00,Wunderground v.1.15,2013-03-28 07:20:00,
2013-03-28 01:25:00,37.9,20.4,29.96,SSE,151,3.0,6.0,49,0.00,,,0.00,Wunderground v.1.15,2013-03-28 07:25:00,
2013-03-28 01:30:00,37.8,20.3,29.97,SSE,150,3.0,3.0,49,0.00,,,0.00,Wunderground v.1.15,2013-03-28 07:30:00,
2013-03-28 01:40:00,37.9,20.4,29.97,SSE,150,2.0,2.0,49,0.00,,,0.00,Wunderground v.1.15,2013-03-28 07:40:00,
2013-03-28 01:45:00,37.8,20.3,29.97,SSE,155,2.0,4.0,49,0.00,,,0.00,Wunderground v.1.15,2013-03-28 07:45:00,
2013-03-28 01:50:00,37.4,20.4,29.97,SSE,153,3.0,3.0,50,0.00,,,0.00,Wunderground v.1.15,2013-03-28 07:50:00,
2013-03-28 02:01:00,37.3,20.3,29.97,SE,141,2.0,2.0,50,0.00,,,0.00,Wunderground v.1.15,2013-03-28 08:01:00,
2013-03-28 02:10:00,37.6,20.1,29.97,ESE,122,2.0,3.0,49,0.00,,,0.00,Wunderground v.1.15,2013-03-28 08:10:00,
2013-03-28 02:20:00,37.3,20.3,29.97,SE,125,2.0,3.0,50,0.00,,,0.00,Wunderground v.1.15,2013-03-28 08:20:00,
2013-03-28 02:25:00,37.2,20.2,29.97,ESE,123,1.0,3.0,50,0.00,,,0.00,Wunderground v.1.15,2013-03-28 08:25:00,
2013-03-28 02:30:00,37.1,20.2,29.97,ESE,122,1.0,2.0,50,0.00,,,0.00,Wunderground v.1.15,2013-03-28 08:30:00,
2013-03-28 02:35:00,36.9,20.0,29.97,ESE,123,1.0,2.0,50,0.00,,,0.00,Wunderground v.1.15,2013-03-28 08:35:00,
2013-03-28 02:40:00,36.7,19.8,29.97,ESE,123,1.0,2.0,50,0.00,,,0.00,Wunderground v.1.15,2013-03-28 08:40:00,
2013-03-28 02:45:00,36.5,19.6,29.97,ESE,123,1.0,2.0,50,0.00,,,0.00,Wunderground v.1.15,2013-03-28 08:45:00,
2013-03-28 02:50:00,36.2,19.8,29.97,ESE,123,1.0,1.0,51,0.00,,,0.00,Wunderground v.1.15,2013-03-28 08:50:00,
2013-03-28 02:55:00,35.8,19.4,29.97,ESE,123,1.0,1.0,51,0.00,,,0.00,Wunderground v.1.15,2013-03-28 08:55:00,
2013-03-28 03:05:00,36.0,20.1,29.97,ESE,117,2.0,9.0,52,0.00,,,0.00,Wunderground v.1.15,2013-03-28 09:05:00,
2013-03-28 03:10:00,36.1,19.7,29.97,ESE,118,2.0,9.0,51,0.00,,,0.00,Wunderground v.1.15,2013-03-28 09:10:00,
2013-03-28 03:15:00,36.0,19.6,29.97,ESE,118,1.0,1.0,51,0.00,,,0.00,Wunderground v.1.15,2013-03-28 09:15:00,
2013-03-28 03:20:00,35.8,19.9,29.97,ESE,118,1.0,1.0,52,0.00,,,0.00,Wunderground v.1.15,2013-03-28 09:20:00,
2013-03-28 03:25:00,35.5,19.6,29.97,ESE,119,1.0,2.0,52,0.00,,,0.00,Wunderground v.1.15,2013-03-28 09:25:00,
2013-03-28 03:30:00,35.4,19.5,29.97,SE,140,2.0,2.0,52,0.00,,,0.00,Wunderground v.1.15,2013-03-28 09:30:00,
2013-03-28 03:40:00,35.1,19.7,29.98,SE,136,2.0,2.0,53,0.00,,,0.00,Wunderground v.1.15,2013-03-28 09:40:00,
2013-03-28 03:50:00,34.6,19.6,29.98,SE,134,2.0,3.0,54,0.00,,,0.00,Wunderground v.1.15,2013-03-28 09:50:00,
2013-03-28 03:55:00,34.4,19.9,29.98,SE,137,2.0,3.0,55,0.00,,,0.00,Wunderground v.1.15,2013-03-28 09:55:00,
2013-03-28 04:00:00,33.6,19.6,29.98,SE,139,2.0,2.0,56,0.00,,,0.00,Wunderground v.1.15,2013-03-28 10:00:00,
2013-03-28 04:05:00,33.2,19.6,29.98,SE,139,1.0,9.0,57,0.00,,,0.00,Wunderground v.1.15,2013-03-28 10:05:00,
2013-03-28 04:10:00,33.0,19.4,29.98,SE,138,1.0,3.0,57,0.00,,,0.00,Wunderground v.1.15,2013-03-28 10:10:00,
2013-03-28 04:15:00,32.8,19.2,29.99,SE,141,1.0,3.0,57,0.00,,,0.00,Wunderground v.1.15,2013-03-28 10:15:00,
2013-03-28 04:20:00,32.8,19.2,29.99,SE,140,2.0,2.0,57,0.00,,,0.00,Wunderground v.1.15,2013-03-28 10:20:00,
2013-03-28 04:25:00,32.9,19.3,29.99,SE,141,1.0,2.0,57,0.00,,,0.00,Wunderground v.1.15,2013-03-28 10:25:00,
2013-03-28 04:30:00,32.9,19.3,29.99,SE,141,1.0,1.0,57,0.00,,,0.00,Wunderground v.1.15,2013-03-28 10:30:00,
2013-03-28 04:35:00,32.8,19.2,29.98,SE,142,1.0,2.0,57,0.00,,,0.00,Wunderground v.1.15,2013-03-28 10:35:00,
2013-03-28 04:40:00,32.6,19.4,29.99,SE,142,2.0,2.0,58,0.00,,,0.00,Wunderground v.1.15,2013-03-28 10:40:00,
2013-03-28 04:45:00,32.6,19.0,29.99,SE,142,2.0,2.0,57,0.00,,,0.00,Wunderground v.1.15,2013-03-28 10:45:00,
2013-03-28 04:50:00,32.8,19.2,29.98,SE,142,1.0,1.0,57,0.00,,,0.00,Wunderground v.1.15,2013-03-28 10:50:00,
2013-03-28 04:55:00,32.9,19.3,29.99,SE,142,1.0,2.0,57,0.00,,,0.00,Wunderground v.1.15,2013-03-28 10:55:00,
2013-03-28 05:05:00,32.9,19.3,29.99,SE,140,1.0,9.0,57,0.00,,,0.00,Wunderground v.1.15,2013-03-28 11:05:00,
2013-03-28 05:10:00,33.1,19.1,29.99,SE,140,1.0,9.0,56,0.00,,,0.00,Wunderground v.1.15,2013-03-28 11:10:00,
2013-03-28 05:15:00,33.2,19.2,29.99,SE,138,1.0,2.0,56,0.00,,,0.00,Wunderground v.1.15,2013-03-28 11:15:00,
2013-03-28 05:20:00,33.4,18.9,29.99,SE,138,1.0,2.0,55,0.00,,,0.00,Wunderground v.1.15,2013-03-28 11:20:00,
2013-03-28 05:30:00,33.3,18.9,29.99,SE,137,1.0,1.0,55,0.00,,,0.00,Wunderground v.1.15,2013-03-28 11:30:00,
2013-03-28 05:40:00,33.0,19.4,30.00,SE,137,0.0,3.0,57,0.00,,,0.00,Wunderground v.1.15,2013-03-28 11:40:00,
2013-03-28 05:45:00,33.0,19.0,30.00,SE,137,0.0,0.0,56,0.00,,,0.00,Wunderground v.1.15,2013-03-28 11:45:00,
2013-03-28 05:50:00,33.0,19.0,30.00,SE,137,0.0,0.0,56,0.00,,,0.00,Wunderground v.1.15,2013-03-28 11:50:00,
2013-03-28 06:05:00,32.6,19.0,30.00,SE,137,0.0,6.0,57,0.00,,,0.00,Wunderground v.1.15,2013-03-28 12:05:00,
2013-03-28 06:10:00,32.5,18.9,30.00,SE,137,0.0,6.0,57,0.00,,,0.00,Wunderground v.1.15,2013-03-28 12:10:00,
2013-03-28 06:20:00,32.6,18.6,30.00,SE,137,1.0,1.0,56,0.00,,,0.00,Wunderground v.1.15,2013-03-28 12:20:00,
2013-03-28 06:25:00,32.7,18.7,30.01,SE,136,1.0,2.0,56,0.00,,,0.00,Wunderground v.1.15,2013-03-28 12:25:00,
2013-03-28 06:30:00,32.7,18.7,30.01,SE,136,1.0,2.0,56,0.00,,,0.00,Wunderground v.1.15,2013-03-28 12:30:00,
2013-03-28 06:35:00,32.8,18.8,30.01,SE,136,1.0,1.0,56,0.00,,,0.00,Wunderground v.1.15,2013-03-28 12:35:00,
2013-03-28 06:40:00,32.8,18.8,30.01,SE,135,1.0,1.0,56,0.00,,,0.00,Wunderground v.1.15,2013-03-28 12:40:00,
2013-03-28 06:50:00,32.9,18.9,30.01,SE,132,2.0,2.0,56,0.00,,,0.00,Wunderground v.1.15,2013-03-28 12:50:00,
2013-03-28 07:05:00,32.9,18.5,30.01,SE,134,2.0,7.0,55,0.00,,,0.00,Wunderground v.1.15,2013-03-28 13:05:00,
2013-03-28 07:10:00,32.8,18.4,30.02,SE,133,2.0,7.0,55,0.00,,,0.00,Wunderground v.1.15,2013-03-28 13:10:00,
2013-03-28 07:20:00,32.6,18.6,30.02,SE,138,1.0,4.0,56,0.00,,,0.00,Wunderground v.1.15,2013-03-28 13:20:00,
2013-03-28 07:30:00,32.9,18.9,30.02,SE,136,1.0,5.0,56,0.00,,,0.00,Wunderground v.1.15,2013-03-28 13:30:00,
2013-03-28 07:35:00,33.1,18.7,30.02,SE,136,1.0,2.0,55,0.00,,,0.00,Wunderground v.1.15,2013-03-28 13:35:00,
2013-03-28 07:40:00,33.3,18.9,30.02,SE,136,1.0,2.0,55,0.00,,,0.00,Wunderground v.1.15,2013-03-28 13:40:00,
2013-03-28 07:45:00,33.4,18.9,30.02,SE,136,2.0,4.0,55,0.00,,,0.00,Wunderground v.1.15,2013-03-28 13:45:00,
2013-03-28 07:50:00,33.6,19.1,30.02,SE,137,2.0,4.0,55,0.00,,,0.00,Wunderground v.1.15,2013-03-28 13:50:00,
2013-03-28 07:55:00,33.8,21.0,30.03,SE,136,1.0,1.0,59,0.00,,,0.00,Wunderground v.1.15,2013-03-28 13:55:00,
2013-03-28 08:00:00,34.0,19.5,30.02,SE,137,1.0,1.0,55,0.00,,,0.00,Wunderground v.1.15,2013-03-28 14:00:00,
2013-03-28 08:05:00,34.0,19.1,30.02,SE,139,1.0,7.0,54,0.00,,,0.00,Wunderground v.1.15,2013-03-28 14:05:00,
2013-03-28 08:10:00,34.1,19.2,30.02,SE,138,1.0,1.0,54,0.00,,,0.00,Wunderground v.1.15,2013-03-28 14:10:00,
2013-03-28 08:20:00,34.4,19.0,30.03,SE,139,0.0,2.0,53,0.00,,,0.00,Wunderground v.1.15,2013-03-28 14:20:00,
2013-03-28 08:25:00,35.0,19.1,30.03,SE,138,1.0,2.0,52,0.00,,,0.00,Wunderground v.1.15,2013-03-28 14:25:00,
2013-03-28 08:30:00,35.7,19.8,30.03,SE,138,0.0,0.0,52,0.00,,,0.00,Wunderground v.1.15,2013-03-28 14:30:00,
2013-03-28 08:40:00,37.6,20.6,30.03,SE,138,0.0,0.0,50,0.00,,,0.00,Wunderground v.1.15,2013-03-28 14:40:00,
2013-03-28 08:45:00,38.2,20.2,30.03,SE,138,0.0,1.0,48,0.00,,,0.00,Wunderground v.1.15,2013-03-28 14:45:00,
2013-03-28 08:50:00,38.8,21.3,30.04,SE,138,0.0,0.0,49,0.00,,,0.00,Wunderground v.1.15,2013-03-28 14:50:00,
2013-03-28 08:55:00,39.3,20.7,30.04,SE,138,0.0,0.0,47,0.00,,,0.00,Wunderground v.1.15,2013-03-28 14:55:00,
2013-03-28 09:05:00,40.9,21.2,30.03,SE,138,1.0,1.0,45,0.00,,,0.00,Wunderground v.1.15,2013-03-28 15:05:00,
2013-03-28 09:10:00,41.9,21.5,30.03,SE,138,0.0,1.0,44,0.00,,,0.00,Wunderground v.1.15,2013-03-28 15:10:00,
2013-03-28 09:15:00,42.6,21.6,30.03,SE,138,0.0,0.0,43,0.00,,,0.00,Wunderground v.1.15,2013-03-28 15:15:00,
2013-03-28 09:20:00,43.7,22.1,30.04,SE,138,0.0,2.0,42,0.00,,,0.00,Wunderground v.1.15,2013-03-28 15:20:00,
2013-03-28 09:25:00,44.2,22.0,30.03,SE,138,1.0,1.0,41,0.00,,,0.00,Wunderground v.1.15,2013-03-28 15:25:00,
2013-03-28 09:30:00,45.0,21.5,30.03,SE,138,1.0,1.0,39,0.00,,,0.00,Wunderground v.1.15,2013-03-28 15:30:00,
2013-03-28 09:35:00,45.7,21.5,30.04,SE,138,0.0,0.0,38,0.00,,,0.00,Wunderground v.1.15,2013-03-28 15:35:00,
2013-03-28 09:40:00,46.5,21.6,30.03,SE,139,0.0,2.0,37,0.00,,,0.00,Wunderground v.1.15,2013-03-28 15:40:00,
2013-03-28 09:45:00,46.8,21.9,30.04,SE,139,0.0,0.0,37,0.00,,,0.00,Wunderground v.1.15,2013-03-28 15:45:00,
2013-03-28 09:50:00,47.2,22.2,30.03,SE,139,0.0,2.0,37,0.00,,,0.00,Wunderground v.1.15,2013-03-28 15:50:00,
2013-03-28 09:55:00,47.5,22.5,30.03,SE,140,0.0,0.0,37,0.00,,,0.00,Wunderground v.1.15,2013-03-28 15:55:00,
2013-03-28 10:05:00,48.3,21.2,30.03,SE,140,1.0,1.0,34,0.00,,,0.00,Wunderground v.1.15,2013-03-28 16:05:00,
2013-03-28 10:10:00,48.6,21.5,30.03,SE,140,1.0,1.0,34,0.00,,,0.00,Wunderground v.1.15,2013-03-28 16:10:00,
2013-03-28 10:15:00,49.0,21.8,30.03,SE,141,1.0,1.0,34,0.00,,,0.00,Wunderground v.1.15,2013-03-28 16:15:00,
2013-03-28 10:20:00,49.5,21.5,30.02,SE,141,1.0,3.0,33,0.00,,,0.00,Wunderground v.1.15,2013-03-28 16:20:00,
2013-03-28 10:25:00,50.0,21.3,30.02,South,190,1.0,1.0,32,0.00,,,0.00,Wunderground v.1.15,2013-03-28 16:25:00,
2013-03-28 10:30:00,50.4,21.6,30.02,SSW,198,1.0,3.0,32,0.00,,,0.00,Wunderground v.1.15,2013-03-28 16:30:00,
2013-03-28 10:35:00,50.3,21.5,30.02,SSW,204,1.0,1.0,32,0.00,,,0.00,Wunderground v.1.15,2013-03-28 16:35:00,
2013-03-28 10:40:00,50.5,23.1,30.02,SSW,204,1.0,3.0,34,0.00,,,0.00,Wunderground v.1.15,2013-03-28 16:40:00,
2013-03-28 10:45:00,50.3,22.3,30.02,SW,235,1.0,1.0,33,0.00,,,0.00,Wunderground v.1.15,2013-03-28 16:45:00,
2013-03-28 10:50:00,50.8,22.7,30.02,WSW,245,2.0,2.0,33,0.00,,,0.00,Wunderground v.1.15,2013-03-28 16:50:00,
2013-03-28 10:55:00,51.2,23.0,30.01,WSW,252,1.0,1.0,33,0.00,,,0.00,Wunderground v.1.15,2013-03-28 16:55:00,
2013-03-28 11:00:00,51.5,22.6,30.01,WSW,253,1.0,1.0,32,0.00,,,0.00,Wunderground v.1.15,2013-03-28 17:00:00,
2013-03-28 11:10:00,51.9,23.7,30.01,West,267,1.0,1.0,33,0.00,,,0.00,Wunderground v.1.15,2013-03-28 17:10:00,
2013-03-28 11:15:00,51.7,22.0,30.02,West,267,1.0,1.0,31,0.00,,,0.00,Wunderground v.1.15,2013-03-28 17:15:00,
2013-03-28 11:20:00,51.5,21.8,30.02,West,268,1.0,1.0,31,0.00,,,0.00,Wunderground v.1.15,2013-03-28 17:20:00,
2013-03-28 11:25:00,51.3,21.6,30.01,West,269,1.0,1.0,31,0.00,,,0.00,Wunderground v.1.15,2013-03-28 17:25:00,
2013-03-28 11:30:00,51.4,22.5,30.01,West,269,1.0,1.0,32,0.00,,,0.00,Wunderground v.1.15,2013-03-28 17:30:00,
2013-03-28 11:35:00,51.6,23.4,30.01,West,269,0.0,1.0,33,0.00,,,0.00,Wunderground v.1.15,2013-03-28 17:35:00,
2013-03-28 11:40:00,52.3,24.0,30.01,West,275,1.0,3.0,33,0.00,,,0.00,Wunderground v.1.15,2013-03-28 17:40:00,
2013-03-28 11:45:00,53.0,23.9,30.00,West,275,1.0,3.0,32,0.00,,,0.00,Wunderground v.1.15,2013-03-28 17:45:00,
2013-03-28 11:50:00,53.9,23.9,30.00,West,269,1.0,1.0,31,0.00,,,0.00,Wunderground v.1.15,2013-03-28 17:50:00,
2013-03-28 12:01:00,55.9,24.1,30.00,WSW,242,1.0,6.0,29,0.00,,,0.00,Wunderground v.1.15,2013-03-28 18:01:00,
2013-03-28 12:05:00,56.5,23.7,29.99,NNE,12,2.0,6.0,28,0.00,,,0.00,Wunderground v.1.15,2013-03-28 18:05:00,
2013-03-28 12:10:00,57.0,25.0,29.99,NW,306,3.0,6.0,29,0.00,,,0.00,Wunderground v.1.15,2013-03-28 18:10:00,
2013-03-28 12:15:00,57.9,24.1,29.99,NNW,331,4.0,4.0,27,0.00,,,0.00,Wunderground v.1.15,2013-03-28 18:15:00,
2013-03-28 12:20:00,58.7,25.6,29.99,WNW,295,3.0,4.0,28,0.00,,,0.00,Wunderground v.1.15,2013-03-28 18:20:00,
2013-03-28 12:25:00,58.7,23.9,29.99,North,360,3.0,3.0,26,0.00,,,0.00,Wunderground v.1.15,2013-03-28 18:25:00,
2013-03-28 12:30:00,58.8,23.9,29.99,North,351,2.0,3.0,26,0.00,,,0.00,Wunderground v.1.15,2013-03-28 18:30:00,
2013-03-28 12:35:00,59.2,24.3,29.99,SSW,208,1.0,4.0,26,0.00,,,0.00,Wunderground v.1.15,2013-03-28 18:35:00,
2013-03-28 12:40:00,59.0,24.1,29.98,South,183,2.0,4.0,26,0.00,,,0.00,Wunderground v.1.15,2013-03-28 18:40:00,
2013-03-28 12:45:00,59.0,25.0,29.99,NW,317,3.0,6.0,27,0.00,,,0.00,Wunderground v.1.15,2013-03-28 18:45:00,
2013-03-28 12:50:00,59.7,21.8,29.98,NNW,327,3.0,6.0,23,0.00,,,0.00,Wunderground v.1.15,2013-03-28 18:50:00,
2013-03-28 13:00:00,59.8,21.9,29.98,NNW,339,3.0,3.0,23,0.00,,,0.00,Wunderground v.1.15,2013-03-28 19:00:00,
2013-03-28 13:05:00,59.2,22.4,29.98,NNW,339,2.0,12.0,24,0.00,,,0.00,Wunderground v.1.15,2013-03-28 19:05:00,
2013-03-28 13:10:00,59.5,22.6,29.98,South,175,2.0,4.0,24,0.00,,,0.00,Wunderground v.1.15,2013-03-28 19:10:00,
2013-03-28 13:15:00,59.6,23.7,29.98,SSE,163,3.0,5.0,25,0.00,,,0.00,Wunderground v.1.15,2013-03-28 19:15:00,
2013-03-28 13:20:00,60.4,23.4,29.98,South,171,4.0,4.0,24,0.00,,,0.00,Wunderground v.1.15,2013-03-28 19:20:00,
2013-03-28 13:25:00,61.1,23.0,29.99,SE,133,4.0,4.0,23,0.00,,,0.00,Wunderground v.1.15,2013-03-28 19:25:00,
2013-03-28 13:30:00,61.8,22.5,29.99,WNW,283,2.0,2.0,22,0.00,,,0.00,Wunderground v.1.15,2013-03-28 19:30:00,
2013-03-28 13:35:00,62.0,22.7,29.99,West,281,1.0,2.0,22,0.00,,,0.00,Wunderground v.1.15,2013-03-28 19:35:00,
2013-03-28 13:40:00,61.8,22.5,29.99,NW,319,2.0,2.0,22,0.00,,,0.00,Wunderground v.1.15,2013-03-28 19:40:00,
2013-03-28 13:45:00,61.3,24.2,29.99,NW,321,3.0,4.0,24,0.00,,,0.00,Wunderground v.1.15,2013-03-28 19:45:00,
2013-03-28 13:50:00,59.9,24.9,29.99,SSE,167,3.0,6.0,26,0.00,,,0.00,Wunderground v.1.15,2013-03-28 19:50:00,
2013-03-28 14:01:00,58.9,24.9,29.99,South,184,4.0,4.0,27,0.00,,,0.00,Wunderground v.1.15,2013-03-28 20:01:00,
2013-03-28 14:05:00,58.7,24.8,29.99,South,180,3.0,11.0,27,0.00,,,0.00,Wunderground v.1.15,2013-03-28 20:05:00,
2013-03-28 14:10:00,59.2,25.2,29.98,SSE,164,2.0,11.0,27,0.00,,,0.00,Wunderground v.1.15,2013-03-28 20:10:00,
2013-03-28 14:15:00,60.0,25.0,29.98,WSW,254,2.0,2.0,26,0.00,,,0.00,Wunderground v.1.15,2013-03-28 20:15:00,
2013-03-28 14:20:00,61.0,25.8,29.98,West,277,2.0,2.0,26,0.00,,,0.00,Wunderground v.1.15,2013-03-28 20:20:00,
2013-03-28 14:25:00,61.7,24.5,29.98,West,276,1.0,1.0,24,0.00,,,0.00,Wunderground v.1.15,2013-03-28 20:25:00,
2013-03-28 14:30:00,61.9,24.7,29.98,South,169,2.0,2.0,24,0.00,,,0.00,Wunderground v.1.15,2013-03-28 20:30:00,
2013-03-28 14:35:00,61.8,25.6,29.97,South,169,3.0,3.0,25,0.00,,,0.00,Wunderground v.1.15,2013-03-28 20:35:00,
2013-03-28 14:40:00,62.6,24.2,29.97,SSE,165,3.0,3.0,23,0.00,,,0.00,Wunderground v.1.15,2013-03-28 20:40:00,
2013-03-28 14:50:00,63.4,24.9,29.96,West,274,3.0,4.0,23,0.00,,,0.00,Wunderground v.1.15,2013-03-28 20:50:00,
2013-03-28 14:55:00,63.7,24.1,29.97,South,184,3.0,3.0,22,0.00,,,0.00,Wunderground v.1.15,2013-03-28 20:55:00,
2013-03-28 15:00:00,64.0,24.4,29.95,South,177,2.0,2.0,22,0.00,,,0.00,Wunderground v.1.15,2013-03-28 21:00:00,
2013-03-28 15:05:00,64.3,24.6,29.95,South,169,1.0,4.0,22,0.00,,,0.00,Wunderground v.1.15,2013-03-28 21:05:00,
2013-03-28 15:10:00,64.1,23.3,29.95,South,169,2.0,2.0,21,0.00,,,0.00,Wunderground v.1.15,2013-03-28 21:10:00,
2013-03-28 15:15:00,63.8,24.2,29.95,WSW,240,2.0,2.0,22,0.00,,,0.00,Wunderground v.1.15,2013-03-28 21:15:00,
2013-03-28 15:20:00,63.2,23.7,29.95,NNW,336,2.0,3.0,22,0.00,,,0.00,Wunderground v.1.15,2013-03-28 21:20:00,
2013-03-28 15:30:00,61.8,23.6,29.95,NNW,339,3.0,3.0,23,0.00,,,0.00,Wunderground v.1.15,2013-03-28 21:30:00,
2013-03-28 15:35:00,61.4,24.2,29.95,NNW,329,2.0,3.0,24,0.00,,,0.00,Wunderground v.1.15,2013-03-28 21:35:00,
2013-03-28 15:40:00,61.4,24.2,29.95,NNW,328,2.0,2.0,24,0.00,,,0.00,Wunderground v.1.15,2013-03-28 21:40:00,
2013-03-28 15:45:00,62.1,24.8,29.94,NW,323,3.0,4.0,24,0.00,,,0.00,Wunderground v.1.15,2013-03-28 21:45:00,
2013-03-28 15:50:00,63.0,24.6,29.94,NW,312,2.0,6.0,23,0.00,,,0.00,Wunderground v.1.15,2013-03-28 21:50:00,
2013-03-28 15:55:00,63.7,24.1,29.94,NW,320,3.0,6.0,22,0.00,,,0.00,Wunderground v.1.15,2013-03-28 21:55:00,
2013-03-28 16:05:00,64.4,23.6,29.94,NW,317,3.0,9.0,21,0.00,,,0.00,Wunderground v.1.15,2013-03-28 22:05:00,
2013-03-28 16:10:00,63.4,23.8,29.94,SSW,194,3.0,9.0,22,0.00,,,0.00,Wunderground v.1.15,2013-03-28 22:10:00,
2013-03-28 16:20:00,61.1,24.0,29.95,South,172,3.0,6.0,24,0.00,,,0.00,Wunderground v.1.15,2013-03-28 22:20:00,
2013-03-28 16:25:00,59.7,24.7,29.94,SSE,151,5.0,9.0,26,0.00,,,0.00,Wunderground v.1.15,2013-03-28 22:25:00,
2013-03-28 16:30:00,59.0,24.1,29.95,SSE,165,5.0,9.0,26,0.00,,,0.00,Wunderground v.1.15,2013-03-28 22:30:00,
2013-03-28 16:35:00,58.7,23.9,29.94,SSE,157,4.0,4.0,26,0.00,,,0.00,Wunderground v.1.15,2013-03-28 22:35:00,
2013-03-28 16:40:00,59.0,24.1,29.94,SSE,159,1.0,4.0,26,0.00,,,0.00,Wunderground v.1.15,2013-03-28 22:40:00,
2013-03-28 16:45:00,59.3,23.4,29.94,SSE,159,1.0,1.0,25,0.00,,,0.00,Wunderground v.1.15,2013-03-28 22:45:00,
2013-03-28 16:50:00,60.0,23.1,29.94,SSE,160,1.0,1.0,24,0.00,,,0.00,Wunderground v.1.15,2013-03-28 22:50:00,
2013-03-28 16:55:00,60.4,23.4,29.94,SSE,160,1.0,1.0,24,0.00,,,0.00,Wunderground v.1.15,2013-03-28 22:55:00,
2013-03-28 17:00:00,61.0,23.9,29.94,SSE,159,1.0,2.0,24,0.00,,,0.00,Wunderground v.1.15,2013-03-28 23:00:00,
2013-03-28 17:05:00,62.0,24.8,29.94,SSE,164,1.0,3.0,24,0.00,,,0.00,Wunderground v.1.15,2013-03-28 23:05:00,
2013-03-28 17:10:00,63.2,24.7,29.94,NE,38,2.0,2.0,23,0.00,,,0.00,Wunderground v.1.15,2013-03-28 23:10:00,
2013-03-28 17:15:00,64.0,24.4,29.94,NE,35,2.0,2.0,22,0.00,,,0.00,Wunderground v.1.15,2013-03-28 23:15:00,
2013-03-28 17:20:00,64.3,23.5,29.93,NW,325,2.0,2.0,21,0.00,,,0.00,Wunderground v.1.15,2013-03-28 23:20:00,
2013-03-28 17:25:00,64.3,23.5,29.93,NW,325,2.0,4.0,21,0.00,,,0.00,Wunderground v.1.15,2013-03-28 23:25:00,
2013-03-28 17:30:00,64.1,23.3,29.93,NW,324,1.0,1.0,21,0.00,,,0.00,Wunderground v.1.15,2013-03-28 23:30:00,
2013-03-28 17:35:00,64.4,24.7,29.93,NW,325,1.0,3.0,22,0.00,,,0.00,Wunderground v.1.15,2013-03-28 23:35:00,
2013-03-28 17:40:00,64.0,24.4,29.93,North,355,2.0,4.0,22,0.00,,,0.00,Wunderground v.1.15,2013-03-28 23:40:00,
2013-03-28 17:45:00,63.5,23.9,29.93,North,355,2.0,4.0,22,0.00,,,0.00,Wunderground v.1.15,2013-03-28 23:45:00,
2013-03-28 17:50:00,63.0,23.5,29.93,North,355,1.0,1.0,22,0.00,,,0.00,Wunderground v.1.15,2013-03-28 23:50:00,
2013-03-28 18:00:00,62.7,23.3,29.93,North,355,0.0,3.0,22,0.00,,,0.00,Wunderground v.1.15,2013-03-29 00:00:00,
2013-03-28 18:05:00,62.7,23.3,29.93,North,355,1.0,13.0,22,0.00,,,0.00,Wunderground v.1.15,2013-03-29 00:05:00,
2013-03-28 18:10:00,62.6,23.2,29.93,North,355,1.0,1.0,22,0.00,,,0.00,Wunderground v.1.15,2013-03-29 00:10:00,
2013-03-28 18:15:00,62.4,24.1,29.93,North,355,0.0,1.0,23,0.00,,,0.00,Wunderground v.1.15,2013-03-29 00:15:00,
2013-03-28 18:20:00,62.1,23.8,29.93,North,355,0.0,0.0,23,0.00,,,0.00,Wunderground v.1.15,2013-03-29 00:20:00,
2013-03-28 18:30:00,60.5,24.5,29.93,North,355,1.0,1.0,25,0.00,,,0.00,Wunderground v.1.15,2013-03-29 00:30:00,
2013-03-28 18:40:00,59.3,24.4,29.94,North,355,0.0,0.0,26,0.00,,,0.00,Wunderground v.1.15,2013-03-29 00:40:00,
2013-03-28 18:45:00,59.0,24.1,29.94,North,355,0.0,0.0,26,0.00,,,0.00,Wunderground v.1.15,2013-03-29 00:45:00,
2013-03-28 18:50:00,58.5,24.6,29.94,North,355,0.0,0.0,27,0.00,,,0.00,Wunderground v.1.15,2013-03-29 00:50:00,
2013-03-28 18:55:00,58.1,24.3,29.94,North,355,0.0,0.0,27,0.00,,,0.00,Wunderground v.1.15,2013-03-29 00:55:00,
2013-03-28 19:05:00,57.4,23.7,29.94,North,355,0.0,7.0,27,0.00,,,0.00,Wunderground v.1.15,2013-03-29 01:05:00,
2013-03-28 19:10:00,57.2,26.0,29.94,North,355,0.0,7.0,30,0.00,,,0.00,Wunderground v.1.15,2013-03-29 01:10:00,
2013-03-28 19:15:00,56.8,25.7,29.95,North,355,0.0,0.0,30,0.00,,,0.00,Wunderground v.1.15,2013-03-29 01:15:00,
2013-03-28 19:20:00,56.1,25.1,29.95,North,355,0.0,0.0,30,0.00,,,0.00,Wunderground v.1.15,2013-03-29 01:20:00,
2013-03-28 19:25:00,55.5,22.9,29.95,North,355,0.0,0.0,28,0.00,,,0.00,Wunderground v.1.15,2013-03-29 01:25:00,
2013-03-28 19:30:00,54.8,23.1,29.95,North,355,0.0,0.0,29,0.00,,,0.00,Wunderground v.1.15,2013-03-29 01:30:00,
2013-03-28 19:35:00,54.2,22.6,29.95,North,355,0.0,0.0,29,0.00,,,0.00,Wunderground v.1.15,2013-03-29 01:35:00,
2013-03-28 19:40:00,53.6,22.9,29.95,North,355,0.0,1.0,30,0.00,,,0.00,Wunderground v.1.15,2013-03-29 01:40:00,
2013-03-28 19:50:00,52.7,22.1,29.95,North,355,0.0,1.0,30,0.00,,,0.00,Wunderground v.1.15,2013-03-29 01:50:00,
2013-03-28 19:55:00,52.3,23.3,29.95,North,355,0.0,0.0,32,0.00,,,0.00,Wunderground v.1.15,2013-03-29 01:55:00,
2013-03-28 20:05:00,51.3,23.1,29.96,North,355,0.0,3.0,33,0.00,,,0.00,Wunderground v.1.15,2013-03-29 02:05:00,
2013-03-28 20:10:00,50.6,23.9,29.96,North,355,0.0,3.0,35,0.00,,,0.00,Wunderground v.1.15,2013-03-29 02:10:00,
2013-03-28 20:20:00,49.3,22.8,29.95,North,350,1.0,1.0,35,0.00,,,0.00,Wunderground v.1.15,2013-03-29 02:20:00,
2013-03-28 20:30:00,48.8,23.0,29.96,ENE,61,1.0,2.0,36,0.00,,,0.00,Wunderground v.1.15,2013-03-29 02:30:00,
2013-03-28 20:35:00,48.7,23.6,29.96,East,101,2.0,4.0,37,0.00,,,0.00,Wunderground v.1.15,2013-03-29 02:35:00,
2013-03-28 20:40:00,48.7,23.6,29.96,ESE,113,3.0,4.0,37,0.00,,,0.00,Wunderground v.1.15,2013-03-29 02:40:00,
2013-03-28 20:50:00,48.6,23.5,29.97,ESE,113,3.0,3.0,37,0.00,,,0.00,Wunderground v.1.15,2013-03-29 02:50:00,
2013-03-28 20:55:00,48.5,23.4,29.97,ESE,114,2.0,4.0,37,0.00,,,0.00,Wunderground v.1.15,2013-03-29 02:55:00,
2013-03-28 21:00:00,48.2,23.7,29.97,ESE,109,3.0,3.0,38,0.00,,,0.00,Wunderground v.1.15,2013-03-29 03:00:00,
2013-03-28 21:05:00,48.0,23.6,29.97,ESE,122,3.0,3.0,38,0.00,,,0.00,Wunderground v.1.15,2013-03-29 03:05:00,
2013-03-28 21:10:00,47.8,23.4,29.97,ESE,112,3.0,3.0,38,0.00,,,0.00,Wunderground v.1.15,2013-03-29 03:10:00,
2013-03-28 21:15:00,47.6,23.8,29.97,SE,124,2.0,3.0,39,0.00,,,0.00,Wunderground v.1.15,2013-03-29 03:15:00,
2013-03-28 21:20:00,47.3,23.6,29.98,ESE,123,1.0,1.0,39,0.00,,,0.00,Wunderground v.1.15,2013-03-29 03:20:00,
2013-03-28 21:25:00,47.1,24.0,29.98,East,99,2.0,2.0,40,0.00,,,0.00,Wunderground v.1.15,2013-03-29 03:25:00,
2013-03-28 21:30:00,47.2,23.5,29.97,East,99,2.0,4.0,39,0.00,,,0.00,Wunderground v.1.15,2013-03-29 03:30:00,
2013-03-28 21:40:00,47.1,24.0,29.98,ESE,107,1.0,3.0,40,0.00,,,0.00,Wunderground v.1.15,2013-03-29 03:40:00,
2013-03-28 21:45:00,46.8,24.3,29.98,ESE,114,2.0,3.0,41,0.00,,,0.00,Wunderground v.1.15,2013-03-29 03:45:00,
2013-03-28 21:50:00,46.4,23.9,29.99,ESE,114,1.0,1.0,41,0.00,,,0.00,Wunderground v.1.15,2013-03-29 03:50:00,
2013-03-28 22:05:00,46.2,23.8,29.99,ESE,115,1.0,12.0,41,0.00,,,0.00,Wunderground v.1.15,2013-03-29 04:05:00,
2013-03-28 22:10:00,46.4,23.4,29.99,ESE,117,1.0,12.0,40,0.00,,,0.00,Wunderground v.1.15,2013-03-29 04:10:00,
2013-03-28 22:15:00,46.4,23.9,29.99,ESE,117,1.0,2.0,41,0.00,,,0.00,Wunderground v.1.15,2013-03-29 04:15:00,
2013-03-28 22:20:00,46.3,23.9,30.00,ESE,121,1.0,2.0,41,0.00,,,0.00,Wunderground v.1.15,2013-03-29 04:20:00,
2013-03-28 22:25:00,46.1,23.7,30.00,ESE,121,1.0,2.0,41,0.00,,,0.00,Wunderground v.1.15,2013-03-29 04:25:00,
2013-03-28 22:30:00,46.1,23.7,29.99,SE,126,1.0,2.0,41,0.00,,,0.00,Wunderground v.1.15,2013-03-29 04:30:00,
2013-03-28 22:35:00,46.1,23.7,30.00,ESE,123,2.0,2.0,41,0.00,,,0.00,Wunderground v.1.15,2013-03-29 04:35:00,
2013-03-28 22:40:00,46.2,23.8,30.00,SE,137,2.0,2.0,41,0.00,,,0.00,Wunderground v.1.15,2013-03-29 04:40:00,
2013-03-28 22:45:00,46.2,23.8,29.99,SE,136,2.0,3.0,41,0.00,,,0.00,Wunderground v.1.15,2013-03-29 04:45:00,
2013-03-28 22:50:00,46.3,23.9,30.00,ESE,118,2.0,3.0,41,0.00,,,0.00,Wunderground v.1.15,2013-03-29 04:50:00,
2013-03-28 22:55:00,46.2,23.8,30.00,SE,132,3.0,3.0,41,0.00,,,0.00,Wunderground v.1.15,2013-03-29 04:55:00,
2013-03-28 23:01:00,46.1,23.7,30.00,ESE,123,3.0,11.0,41,0.00,,,0.00,Wunderground v.1.15,2013-03-29 05:01:00,
2013-03-28 23:05:00,46.0,23.6,30.00,SE,124,3.0,11.0,41,0.00,,,0.00,Wunderground v.1.15,2013-03-29 05:05:00,
2013-03-28 23:10:00,45.8,24.0,30.00,SE,130,2.0,11.0,42,0.00,,,0.00,Wunderground v.1.15,2013-03-29 05:10:00,
2013-03-28 23:15:00,45.7,23.9,30.00,SE,133,2.0,2.0,42,0.00,,,0.00,Wunderground v.1.15,2013-03-29 05:15:00,
2013-03-28 23:20:00,45.6,23.8,30.00,ESE,118,2.0,2.0,42,0.00,,,0.00,Wunderground v.1.15,2013-03-29 05:20:00,
2013-03-28 23:25:00,45.5,23.7,30.00,ESE,121,2.0,2.0,42,0.00,,,0.00,Wunderground v.1.15,2013-03-29 05:25:00,
2013-03-28 23:30:00,45.4,23.6,30.00,ESE,114,2.0,2.0,42,0.00,,,0.00,Wunderground v.1.15,2013-03-29 05:30:00,
2013-03-28 23:40:00,45.7,23.9,30.00,SE,144,4.0,4.0,42,0.00,,,0.00,Wunderground v.1.15,2013-03-29 05:40:00,
2013-03-28 23:50:00,46.0,23.6,30.00,East,98,3.0,4.0,41,0.00,,,0.00,Wunderground v.1.15,2013-03-29 05:50:00,
2013-03-28 23:55:00,46.1,23.7,30.00,ESE,122,3.0,3.0,41,0.00,,,0.00,Wunderground v.1.15,2013-03-29 05:55:00,